Tracking 31028 objects as of 18-Jul-2025
HD Live streaming from Space Station
objects crossing your sky now

COSMOS 839 DEB

Track COSMOS 839 DEB now!
10-day predictions


NORAD ID: 13515
Int'l Code: 1976-067BC
Perigee: 980.9 km
Apogee: 2,027.6 km
Inclination: 65.9 °
Period: 115.9 minutes
Semi major axis: 7875 km
RCS: 0.0107 m2 (small)
Launch date: July 8, 1976
Source: Commonwealth of Independent States (former USSR) (CIS)
Launch site: PLESETSK MISSILE AND SPACE COMPLEX (PKMTR)

Note: This is SATELLITE DEBRIS
Your satellite tracking list
Your tracking list is empty




NASA's NSSDC Master Catalog

Two Line Element Set (TLE):
1 13515U 76067BC  25198.77440832  .00000586  00000-0  21498-2 0  9996
2 13515  65.9008 314.1458 0664555 255.5259 269.7757 12.42248138 38699
Source of the keplerian elements: AFSPC